Skip Page Navigation
NASA JPL Caltech
NASA Logo - Jet Propulsion Laboratory + View the NASA Portal
+ Center for Near-Earth Object Studies
JPL Home Earth Solar System Stars & Galaxies Technology
JPL Solar System Dynamics
BODIES ORBITS EPHEMERIDES TOOLS PHYSICAL DATA DISCOVERY FAQ SITE MAP
JPL Small-Body Database Browser
Search: [ help ]  
432113 (2009 BY10)
Classification: Main-belt Asteroid          SPK-ID: 2432113
Ephemeris | Orbit Diagram | Orbital Elements | Mission Design | Physical Parameters | Discovery Circumstances | Close-Approach Data ]

[ hide orbit diagram ]

For accurate long-term ephemerides, please instead use our Horizons system.This orbit viewer was implemented using two-body methods, and hence should not be used for determining accurate long-term trajectories (over several years or decades) or planetary encounter circumstances.


[ revert to old Java-based viewer ]

Orbital Elements at Epoch 2459000.5 (2020-May-31.0) TDB
Reference: JPL 20 (heliocentric ecliptic J2000)
 Element Value Uncertainty (1-sigma)   Units 
e .1897476583425212 6.3668e-08  
a 3.131341516291773 4.6173e-08 au
q 2.537176796104689 2.1246e-07 au
i 11.88577316703968 6.8867e-06 deg
node 107.6955939068572 4.0686e-05 deg
peri 9.201347994537208 4.8325e-05 deg
M 29.66529791630975 2.2461e-05 deg
tp 2458833.721411360689
(2019-Dec-16.22141136)
0.00012631 TDB
period 2023.923443463621
5.54
4.4766e-05
1.226e-07
d
yr
n .177872340558454 3.9342e-09 deg/d
Q 3.725506236478857 5.4935e-08 au
  Orbit Determination Parameters
   # obs. used (total)      257  
   data-arc span      5865 days (16.06 yr)  
   first obs. used      2004-03-29  
   last obs. used      2020-04-19  
   planetary ephem.      DE431  
   SB-pert. ephem.      SB431-N16  
   condition code      0  
   norm. resid. RMS      .50489  
   source      ORB  
   producer      Otto Matic  
   solution date      2020-May-22 03:15:13  

Additional Information
 Earth MOID = 1.55431 au 
 Jupiter MOID = 1.40298 au 
 T_jup = 3.152 
[ show covariance matrix ]

Ephemeris | Orbit Diagram | Orbital Elements | Mission Design | Physical Parameters | Discovery Circumstances | Close-Approach Data ]

Physical Parameter Table
Parameter Symbol Value Units Sigma Reference Notes
absolute magnitude H 15.9   n/a MPO419160  
diameter diameter 4.113 km 0.341 urn:nasa:pds:neowise_diameters_albedos::2.0[mainbelt] (http://adsabs.harvard.edu/abs/2011ApJ...741...68M)  
geometric albedo albedo 0.046   0.011 urn:nasa:pds:neowise_diameters_albedos::2.0[mainbelt] (http://adsabs.harvard.edu/abs/2011ApJ...741...68M)  

432113 (2009 BY10)          Discovered 2009-Jan-25 by Lowe, A. at Mayhill
Reference: Last Updated: 2015-04-07

[ show close-approach data ]
Ephemeris | Orbit Diagram | Orbital Elements | Mission Design | Physical Parameters | Discovery Circumstances | Close-Approach Data ]
ABOUT SSD CREDITS/AWARDS PRIVACY/COPYRIGHT GLOSSARY LINKS
FirstGov 2020-Sep-19 19:13 UT
(server date/time)  
NASA Home Page
Site Manager:   Ryan S. Park
Webmaster  Alan B. Chamberlin